EW4858 Weather Reports


Display with metric or nautical units.
time (UTC)temp
F
wind
direction
speed
MPH
gust
MPH
rain 1hr
in
rain 24hr
in
rain mn
in
humidity
%
barometer
mb
20260831051528 72 355 0.0 1.0 0.00 0.00 0.00 83 1008.2
20260831050018 72 355 0.0 0.0 0.00 0.00 0.00 82 1008.1
20260831044518 73 355 0.0 4.0 0.00 0.00 0.00 81 1008.1
20260831043016 73 355 0.0 4.0 0.00 0.00 0.00 80 1007.9
20260831041516 74 360 1.0 4.0 0.00 0.00 0.00 78 1007.8
20260831040033 74 344 1.0 5.0 0.00 0.00 0.00 77 1007.8
20260831034517 75 14 1.0 4.0 0.00 0.00 0.00 76 1007.4
20260831033015 75 49 0.0 5.0 0.00 0.00 0.00 76 1007.2
20260831031514 76 32 0.0 5.0 0.00 0.00 0.00 75 1007.0
20260831030014 76 9 1.0 5.0 0.00 0.00 0.00 74 1006.9
20260831024514 76 24 0.0 4.0 0.00 0.00 0.00 73 1006.9
20260831023014 77 5 0.0 5.0 0.00 0.00 0.00 71 1006.8
20260831021512 78 5 2.0 6.0 0.00 0.00 0.00 70 1006.7
20260831020012 79 360 2.0 5.0 0.00 0.00 0.00 69 1006.7
20260831014512 80 14 4.0 9.0 0.00 0.00 0.00 65 1006.5
20260831013010 81 73 4.0 8.0 0.00 0.00 0.00 63 1006.4
20260831011511 82 49 2.0 7.0 0.00 0.00 0.00 62 1006.4
20260831010012 82 37 5.0 9.0 0.00 0.00 0.00 62 1006.4
20260831004510 83 343 4.0 7.0 0.00 0.00 0.00 59 1006.4
20260831003008 83 57 3.0 9.0 0.00 0.00 0.00 58 1006.5
20260831001509 83 335 5.0 10.0 0.00 0.00 0.00 55 1006.4
20260831000008 84 12 6.0 11.0 0.00 0.00 0.00 54 1006.4
20260830234510 84 360 5.0 9.0 0.00 0.00 0.00 53 1006.4
20260830233006 85 42 5.0 9.0 0.00 0.00 0.00 48 1006.5
20260830231505 86 360 5.0 8.0 0.00 0.00 0.00 45 1006.5
20260830230004 86 33 5.0 11.0 0.00 0.00 0.00 47 1006.5
20260830224503 86 5 3.0 9.0 0.00 0.00 0.00 48 1006.6
20260830223001 86 21 4.0 9.0 0.00 0.00 0.00 45 1006.6
20260830220100 87 16 5.0 9.0 0.00 0.00 0.00 42 1007.0
20260830214605 87 37 5.0 12.0 0.00 0.00 0.00 40 1007.1
20260830213102 88 42 5.0 10.0 0.00 0.00 0.00 38 1007.2
20260830211558 87 28 5.0 10.0 0.00 0.00 0.00 43 1007.1
20260830210103 87 42 6.0 11.0 0.00 0.00 0.00 45 1007.5
20260830204554 87 24 6.0 11.0 0.00 0.00 0.00 46 1007.6
20260830203052 87 24 5.0 11.0 0.00 0.00 0.00 46 1007.7
20260830201552 87 34 6.0 12.0 0.00 0.00 0.00 47 1007.7
20260830200051 86 28 6.0 11.0 0.00 0.00 0.00 48 1007.8
20260830194549 86 31 5.0 12.0 0.00 0.00 0.00 52 1007.7
20260830193049 86 5 7.0 11.0 0.00 0.00 0.00 56 1007.9
20260830191552 86 43 7.0 13.0 0.00 0.00 0.00 56 1007.9
20260830190046 86 23 5.0 10.0 0.00 0.00 0.00 55 1007.9
20260830184544 86 22 4.0 9.0 0.00 0.00 0.00 55 1008.0
20260830183041 85 58 5.0 9.0 0.00 0.00 0.00 58 1008.0
20260830181539 85 332 3.0 11.0 0.00 0.00 0.00 59 1008.1
20260830180052 84 34 5.0 9.0 0.00 0.00 0.00 61 1008.2
20260830174537 84 80 4.0 7.0 0.00 0.00 0.00 63 1008.0
20260830173047 83 38 2.0 5.0 0.00 0.00 0.00 67 1008.0
20260830171529 80 105 0.0 5.0 0.00 0.00 0.00 70 1008.0
20260830170026 80 32 0.0 4.0 0.00 0.00 0.00 71 1007.9
20260830164522 78 77 0.0 3.0 0.00 0.00 0.00 73 1007.7
20260830163022 77 24 0.0 3.0 0.00 0.00 0.00 77 1007.8
20260830161515 76 26 0.0 4.0 0.00 0.00 0.00 79 1007.8
20260830160014 76 26 0.0 4.0 0.00 0.00 0.00 80 1007.8
20260830154614 75 156 0.0 5.0 0.00 0.00 0.00 80 1007.8
20260830153011 75 313 0.0 0.0 0.00 0.00 0.00 81 1007.9
20260830151510 75 246 0.0 0.0 0.00 0.00 0.00 82 1007.9
20260830150021 74 246 0.0 0.0 0.00 0.00 0.00 85 1007.9
20260830144509 73 246 0.0 0.0 0.00 0.00 0.00 86 1007.9
20260830143006 72 246 0.0 0.0 0.00 0.00 0.00 87 1007.9
20260830141524 71 246 0.0 0.0 0.00 0.00 0.00 88 1007.9
20260830140007 71 246 0.0 4.0 0.00 0.00 0.00 89 1007.7
20260830134511 71 220 0.0 0.0 0.00 0.00 0.00 89 1007.6
20260830133001 71 250 0.0 3.0 0.00 0.00 0.00 90 1007.4
20260830131501 71 250 1.0 4.0 0.00 0.00 0.00 90 1007.3
20260830130101 71 257 0.0 3.0 0.00 0.00 0.00 90 1007.3
20260830124620 71 257 0.0 3.0 0.00 0.00 0.00 90 1007.3
20260830123104 71 257 0.0 2.0 0.00 0.00 0.00 90 1007.3
20260830121559 71 257 0.0 5.0 0.00 0.00 0.00 90 1007.1
20260830120059 71 275 0.0 5.0 0.00 0.00 0.00 89 1007.2
20260830114608 71 28 1.0 4.0 0.00 0.00 0.00 90 1007.3
20260830113053 71 329 0.0 3.0 0.00 0.00 0.00 89 1007.1
20260830111553 71 326 0.0 3.0 0.00 0.00 0.00 89 1007.1
20260830110052 71 326 0.0 4.0 0.00 0.00 0.00 89 1007.0
20260830104555 72 325 0.0 3.0 0.00 0.00 0.00 89 1007.0
20260830103050 72 279 0.0 3.0 0.00 0.00 0.00 89 1007.0
20260830101550 72 269 0.0 4.0 0.00 0.00 0.00 88 1007.0
20260830100048 72 304 0.0 3.0 0.00 0.00 0.00 89 1006.9
20260830094549 72 304 0.0 3.0 0.00 0.00 0.00 88 1006.9
20260830093045 72 304 0.0 0.0 0.00 0.00 0.00 88 1007.0
20260830091545 73 304 0.0 3.0 0.00 0.00 0.00 88 1006.9
20260830090058 73 348 0.0 4.0 0.00 0.00 0.00 87 1007.0
20260830084546 73 316 0.0 2.0 0.00 0.00 0.00 86 1007.0
20260830083041 73 318 0.0 4.0 0.00 0.00 0.00 86 1006.9
20260830081542 74 311 0.0 3.0 0.00 0.00 0.00 85 1006.8
20260830080038 74 311 0.0 1.0 0.00 0.00 0.00 85 1006.9
20260830074536 74 311 0.0 0.0 0.00 0.00 0.00 84 1006.9
20260830073048 74 311 0.0 0.0 0.00 0.00 0.00 84 1007.0
20260830071539 74 311 0.0 0.0 0.00 0.00 0.00 84 1007.0
20260830070032 74 311 0.0 3.0 0.00 0.00 0.00 84 1007.0
20260830064535 75 311 0.0 2.0 0.00 0.00 0.00 83 1006.9
20260830063031 75 268 0.0 4.0 0.00 0.00 0.00 81 1007.0
20260830061533 76 315 0.0 3.0 0.00 0.00 0.00 79 1007.0
20260830060031 76 303 0.0 4.0 0.00 0.00 0.00 76 1007.0
20260830054531 77 308 0.0 5.0 0.00 0.00 0.00 73 1007.1
20260830053031 77 308 0.0 0.0 0.00 0.00 0.00 71 1007.0